Location: Valencia
(39.4696°N, 0.3770°W)
Time: 13:47:45
(UTC+02:00)

ISS - Visible Passes

Search period start: 04 July 2015 00:00
Search period end: 14 July 2015 00:00
Orbit: 398 x 403 km, 51.6° (Epoch: 03 July)

Date Brightness Start Highest point End Pass type
(mag) Time Alt. Az. Time Alt. Az. Time Alt. Az.
11 Jul -1.5 06:09:50 10° S 06:12:32 25° SE 06:15:17 10° ENE visible
12 Jul -0.7 05:17:43 10° SSE 05:19:07 12° SE 05:20:38 10° ESE visible
13 Jul -3.1 05:58:32 11° SW 06:01:35 61° SE 06:04:49 10° ENE visible
